GSAT-18

Last updated on Thu Jul 03 2025 00:02:47 GMT+0000 (Coordinated Universal Time)

1 41793U 16060A 25183.47405991 -.00000069 00000+0 00000+0 0 9999 2 41793 0.0109 11.3627 0004827 58.6417 95.3783 1.00269456 32023
UTC large
Height (km)
Speed (km/s)
/
Latitude / Longitude
Inclination (degrees)
Orbital Period (minutes)
Azimuth
Elevation
Range (km)
Doppler Factor

Next 0 passes for location: London (51.5072 / 0.1276)

Sorry there are no passes over London.